[[{"header":{"parameterUnit":"m.s-1","parameterCategory":1,"la1":30.2991,"la2":30.254,"lo1":-89.0895,"lo2":-89.0444,"dy":0.0017,"dx":0.0017,"nx":28,"ny":28,"refTime":"2025-03-15T03:00:00:Z","depth":0,"parameterNumber":2,"parameterNumberName":"U-component_of_WINDS"},"data":[0,0,0,0,0,0,0,0,0,0,0,0,0,0,0,0,0,0,0,0,0,0,0,0,0,0,0,0,0,0,0,0,0,0,0,0,0,0,0,0,0,0,0,0,0,0,0,0,0,0,0,0,0,0,0,0,0,0,5.9968,5.997,0,6.0171,6.0173,6.0176,6.0169,6.0166,6.0163,6.0161,6.0372,6.038,6.0388,0,0,0,0,0,0,0,0,0,0,0,0,0,5.9578,5.9585,5.9968,5.9971,5.9973,6.0171,6.0173,6.0176,6.0169,6.0166,6.0163,6.0159,6.0369,6.0379,6.0389,0,0,0,0,0,0,0,0,0,0,0,0,0,5.9761,5.9587,5.9968,5.9993,5.9998,6.017,6.0173,6.0177,6.017,6.0166,6.0162,6.0158,6.0366,6.0378,6.039,6.0551,0,0,6.0428,6.0433,0,0,0,0,0,0,0,0,5.975,5.9775,5.9987,5.9992,5.9997,6.014,6.0113,6.0302,6.0171,6.0105,6.0161,6.0156,6.0298,6.0316,6.0363,6.0561,6.057,6.0429,6.0436,6.0442,6.0445,0,0,0,0,0,0,0,5.9738,5.9766,6.0048,5.999,5.9996,5.9996,6.0017,6.0149,6.0223,6.011,6.011,6.0134,6.03,6.0352,6.0368,6.0573,6.0429,6.044,6.0447,6.0452,6.0912,6.0917,0,0,0,0,0,0,5.9719,5.9756,6.0042,6.0054,5.9861,6.0006,6.003,6.0099,6.0221,6.0236,6.0138,6.0133,6.0332,6.0354,6.0376,6.0571,6.0442,6.0453,6.046,6.0907,6.0913,6.0918,0,0,0,0,0,0,5.9711,5.9745,6.0034,5.9905,5.9942,6.0018,6.0095,6.0105,6.0156,6.0242,6.0255,6.0176,6.033,6.0358,6.0507,6.0579,6.0459,6.047,6.0902,6.0909,6.0916,6.0964,0,0,0,0,0,0,5.97,5.9742,5.9803,5.9907,5.9949,6.0161,6.0099,6.0112,6.0177,6.0173,6.0282,6.0296,6.0329,6.0489,6.0519,6.0593,6.048,6.0896,6.0905,6.0913,6.0956,6.0972,6.0985,0,0,0,0,0,5.9686,5.9809,5.9806,5.984,6.0027,6.0165,6.0189,6.0224,6.0183,6.0245,6.03,6.0292,6.0566,6.0504,6.0538,6.0617,6.0891,6.0902,6.0913,6.095,6.0969,6.0985,0,0,0,0,0,0,5.9713,5.9823,5.9821,5.9981,6.0064,6.0163,6.0243,6.0243,6.0339,6.0332,6.0372,6.0397,6.0545,6.0597,6.0525,6.0779,6.0724,6.0742,6.074,6.0759,6.0773,6.0757,6.049,0,0,0,0,0,5.9737,5.9839,5.9931,6.0064,6.0105,6.0167,6.0229,6.0248,6.0335,6.037,6.0437,6.0523,6.0628,6.0696,6.0798,6.0964,6.0988,6.1036,6.105,6.1062,6.1077,6.1168,6.119,6.0954,6.0954,6.0954,0,0,5.9789,5.9862,5.9924,6.0071,6.0137,6.0242,6.0196,6.031,6.0389,6.0388,6.0532,6.0584,6.0682,6.084,6.0913,6.0887,6.1147,6.1075,6.1084,6.1093,6.1181,6.1203,6.1223,6.0961,6.096,6.0959,0,0,5.9937,6.0003,6.012,6.0187,6.0288,6.0328,6.0356,6.0457,6.049,6.0635,6.0637,6.0732,6.0913,6.0983,6.1042,6.1217,6.1213,6.1249,6.1325,6.1413,6.1432,6.1448,6.151,6.1532,6.1264,6.1264,6.1264,0,5.9989,6.0147,6.0181,6.0295,6.036,6.0363,6.0483,6.0546,6.0675,6.072,6.069,6.0916,6.0983,6.1157,6.1199,6.1248,6.1281,6.1236,6.1426,6.1443,6.1459,6.1518,6.1542,6.1268,6.1267,6.1267,6.1267,0,6.0206,6.0315,6.0399,6.0521,6.0595,6.0712,6.0764,6.0835,6.0849,6.0893,6.104,6.1121,6.1238,6.1282,6.1297,6.1458,6.1439,6.1417,6.1361,6.1485,6.1541,6.1564,6.1273,6.1272,6.1271,6.127,0,0,6.0375,6.0515,6.0545,6.0601,6.0712,6.0798,6.0915,6.1029,6.1089,6.1178,6.1277,6.143,6.141,6.1478,6.1501,6.1578,6.1711,6.1547,6.155,6.1574,6.1893,6.1908,6.1934,6.171,6.1714,6.1718,6.1885,0,6.0534,6.074,6.0774,6.0955,6.1056,6.1062,6.1163,6.1243,6.1288,6.1381,6.1431,6.1538,6.1505,6.1545,6.1622,6.1678,6.1775,6.1667,6.1802,6.1807,6.1776,6.1963,6.198,6.2133,6.1907,6.1911,6.1914,0,6.0746,6.0839,6.103,6.1127,6.1171,6.1261,6.1368,6.1458,6.1549,6.1576,6.1651,6.1665,6.1787,6.1727,6.1897,6.1822,6.188,6.1916,6.1923,6.1935,6.1866,6.198,6.2183,6.2206,6.1949,6.1946,6.1943,0,6.0849,6.1023,6.1159,6.1207,6.1323,6.1387,6.1439,6.1526,6.1592,6.1686,6.173,6.1838,6.1897,6.1981,6.2023,6.1976,6.219,6.2133,6.2216,6.2215,6.2259,6.2256,6.2473,6.2299,6.2298,6.2298,6.2297,0,6.1022,6.1138,6.1206,6.129,6.1421,6.146,6.1588,6.1639,6.1716,6.181,6.1822,6.1911,6.1963,6.2059,6.2094,6.2228,6.2256,6.2281,6.2289,6.2279,6.2276,6.2317,6.2307,6.2304,6.2303,6.2302,6.23,0,6.1158,6.1209,6.1357,6.1456,6.1483,6.1575,6.166,6.1742,6.1786,6.1905,6.1936,6.2006,6.212,6.2171,6.2313,6.2336,6.2489,6.249,6.2458,6.246,6.2539,6.2531,6.2789,6.2825,6.2628,6.263,6.2631,0,6.1264,6.1353,6.1461,6.1524,6.1578,6.168,6.1747,6.179,6.186,6.197,6.2039,6.2153,6.2246,6.2429,6.2493,6.2601,6.2604,6.2687,6.262,6.2608,6.2604,6.2598,6.2607,6.2699,6.2701,6.2703,6.2704,0,6.1447,6.1467,6.1563,6.1669,6.1749,6.1834,6.1918,6.1969,6.2025,6.2103,6.2219,6.2292,6.2436,6.2549,6.2661,6.2716,6.272,6.2725,6.2749,6.274,6.2717,6.2729,6.249,6.2718,6.2717,6.2716,6.2715,6.2714,6.1571,6.165,6.1738,6.1844,6.1912,6.199,6.2071,6.2126,6.2223,6.2342,6.2362,6.2485,6.2575,6.2726,6.2785,6.2883,6.2863,6.2899,6.2908,6.2915,6.2919,6.2702,6.2904,6.2903,6.2903,6.2903,6.2903,0,6.1752,6.1809,6.1907,6.2023,6.2107,6.2103,6.2196,6.2266,6.2375,6.2457,6.2549,6.2682,6.2792,6.2865,6.2977,6.3041,6.3046,6.3069,6.3064,6.3077,6.2931,6.2898,6.3063,6.3063,6.3063,6.3063,6.3063,6.3063,6.1857,6.199,6.2022,6.2189,6.2246,6.2366,6.2419,6.2491,6.2557,6.2705,6.2796,6.2843,6.2922,6.3039,6.314,6.3159,6.3199,6.3223,6.3241,6.3104,6.3087,6.3071,6.304,6.3232,6.3232,6.3378,6.3379,6.338]},{"header":{"parameterUnit":"m.s-1","parameterCategory":1,"la1":30.2991,"la2":30.254,"lo1":-89.0895,"lo2":-89.0444,"dy":0.0017,"dx":0.0017,"nx":28,"ny":28,"refTime":"2025-03-15T03:00:00:Z","depth":0,"parameterNumber":3,"parameterNumberName":"V-component_of_WINDS"},"data":[0,0,0,0,0,0,0,0,0,0,0,0,0,0,0,0,0,0,0,0,0,0,0,0,0,0,0,0,0,0,0,0,0,0,0,0,0,0,0,0,0,0,0,0,0,0,0,0,0,0,0,0,0,0,0,0,0,0,4.7514,4.7516,0,4.7669,4.767,4.7672,4.7683,4.7682,4.768,4.7678,4.783,4.7836,4.7842,0,0,0,0,0,0,0,0,0,0,0,0,0,4.7222,4.7227,4.7514,4.7516,4.7518,4.7668,4.767,4.7672,4.7684,4.7682,4.7679,4.7678,4.7829,4.7835,4.7842,0,0,0,0,0,0,0,0,0,0,0,0,0,4.736,4.7229,4.7514,4.7542,4.7546,4.7668,4.767,4.7673,4.7684,4.7681,4.7679,4.7677,4.7826,4.7835,4.7843,4.7946,0,0,4.7869,4.7872,0,0,0,0,0,0,0,0,4.7352,4.737,4.7536,4.754,4.7545,4.7654,4.7623,4.7764,4.7685,4.7631,4.7678,4.7675,4.7773,4.7786,4.782,4.7953,4.796,4.787,4.7875,4.7878,4.7881,0,0,0,0,0,0,0,4.7342,4.7364,4.7575,4.7538,4.7544,4.7544,4.7561,4.765,4.7714,4.7636,4.7637,4.7655,4.7775,4.7812,4.7824,4.7962,4.7869,4.7877,4.7882,4.7885,4.8185,4.8188,0,0,0,0,0,0,4.7328,4.7356,4.757,4.758,4.744,4.7552,4.757,4.7621,4.7714,4.7725,4.7657,4.7655,4.7799,4.7814,4.7829,4.7956,4.7878,4.7886,4.7891,4.8182,4.8186,4.8189,0,0,0,0,0,0,4.7322,4.7347,4.7564,4.7468,4.7496,4.7559,4.7617,4.7626,4.7663,4.773,4.7741,4.7684,4.7798,4.7818,4.7917,4.7961,4.789,4.7898,4.8179,4.8183,4.8187,4.8209,0,0,0,0,0,0,4.7313,4.7345,4.7386,4.7469,4.7501,4.7651,4.7619,4.7631,4.7678,4.7677,4.7758,4.7769,4.7797,4.7904,4.7925,4.7972,4.7904,4.8175,4.8181,4.8186,4.8205,4.8214,4.8222,0,0,0,0,0,4.7303,4.7385,4.7388,4.7414,4.7554,4.7654,4.7671,4.7705,4.7682,4.7723,4.7766,4.7766,4.7953,4.7914,4.7938,4.7988,4.8172,4.8179,4.8185,4.8201,4.8212,4.8221,0,0,0,0,0,0,4.7304,4.7397,4.7401,4.7513,4.7576,4.7655,4.7708,4.7715,4.7784,4.778,4.7816,4.7834,4.7932,4.7969,4.7925,4.8091,4.806,4.8071,4.8064,4.8075,4.8083,4.8072,4.7911,0,0,0,0,0,4.7318,4.7393,4.7469,4.756,4.7591,4.7644,4.7689,4.7709,4.7774,4.78,4.785,4.7912,4.7984,4.8031,4.8102,4.821,4.8227,4.8255,4.8263,4.827,4.828,4.8339,4.8352,4.821,4.821,4.821,0,0,4.7346,4.7406,4.7451,4.7562,4.7613,4.7687,4.7666,4.7747,4.7802,4.7812,4.7909,4.7948,4.8019,4.8123,4.8171,4.8157,4.8322,4.8278,4.8283,4.8289,4.8347,4.836,4.8372,4.8214,4.8214,4.8213,0,0,4.7437,4.749,4.7572,4.7623,4.7701,4.7736,4.7755,4.7834,4.7861,4.7959,4.7968,4.8033,4.8157,4.8207,4.8249,4.8357,4.8359,4.8378,4.8422,4.8479,4.849,4.85,4.8538,4.8552,4.8387,4.8387,4.8388,0,4.7462,4.7577,4.7612,4.7693,4.7741,4.7754,4.7836,4.7884,4.7979,4.8011,4.7994,4.8151,4.8199,4.8315,4.8341,4.8374,4.8396,4.837,4.8486,4.8496,4.8506,4.8543,4.8557,4.8389,4.8389,4.8389,4.8389,0,4.7604,4.7683,4.774,4.7834,4.7888,4.7969,4.8014,4.8064,4.8079,4.8114,4.8213,4.8272,4.8355,4.8383,4.8398,4.8501,4.8489,4.8479,4.8448,4.8521,4.8556,4.8571,4.8392,4.8391,4.8391,4.839,0,0,4.77,4.7813,4.7833,4.7876,4.7962,4.8023,4.8103,4.8186,4.8227,4.8292,4.8359,4.8464,4.8455,4.8502,4.8522,4.8572,4.8653,4.8555,4.8557,4.8571,4.8769,4.8777,4.8792,4.8654,4.8657,4.8659,4.8763,0,4.78,4.7947,4.798,4.8104,4.8177,4.8191,4.826,4.8319,4.8354,4.8419,4.8456,4.853,4.8513,4.8541,4.8591,4.8632,4.8693,4.8625,4.8716,4.8719,4.8699,4.8811,4.882,4.8915,4.8777,4.8779,4.8781,0,4.7937,4.8007,4.814,4.8216,4.8248,4.831,4.8388,4.8451,4.8517,4.8538,4.8591,4.8605,4.8687,4.8651,4.8763,4.8716,4.8755,4.878,4.8785,4.8795,4.8755,4.8824,4.8946,4.896,4.8803,4.8801,4.8799,0,4.7994,4.8121,4.8217,4.8253,4.8344,4.8388,4.8427,4.8491,4.8538,4.8605,4.8636,4.871,4.8751,4.8807,4.884,4.8812,4.8949,4.8917,4.8968,4.8968,4.8998,4.8995,4.9127,4.9022,4.9021,4.9021,4.9021,0,4.8103,4.8183,4.8244,4.8303,4.8393,4.8429,4.8516,4.8555,4.8611,4.8676,4.8691,4.8751,4.8792,4.8857,4.8883,4.8971,4.8989,4.9007,4.9013,4.9007,4.9004,4.9033,4.9027,4.9025,4.9024,4.9023,4.9023,0,4.8182,4.8226,4.8332,4.8409,4.8431,4.8493,4.8559,4.8615,4.865,4.8732,4.8753,4.8807,4.8884,4.8923,4.9018,4.9036,4.9135,4.9137,4.9114,4.9117,4.9166,4.9161,4.9321,4.9344,4.9223,4.9224,4.9225,0,4.8249,4.8311,4.8396,4.8442,4.8483,4.8556,4.8605,4.8642,4.8691,4.8771,4.8817,4.8896,4.8961,4.9083,4.9129,4.9202,4.9205,4.9256,4.9216,4.9207,4.9206,4.9202,4.9208,4.9264,4.9265,4.9266,4.9267,0,4.8362,4.8381,4.8452,4.853,4.8588,4.8651,4.8713,4.8748,4.8795,4.8849,4.893,4.898,4.9078,4.9156,4.9232,4.9269,4.9276,4.9279,4.9295,4.9289,4.9273,4.9282,4.9134,4.9275,4.9274,4.9274,4.9273,4.9273,4.8437,4.8493,4.8562,4.864,4.8691,4.8748,4.8805,4.8847,4.8916,4.9,4.9017,4.9102,4.9165,4.9268,4.9308,4.9373,4.9362,4.9385,4.9391,4.9396,4.9399,4.9262,4.9387,4.9387,4.9387,4.9387,4.9386,0,4.8552,4.8597,4.8668,4.8755,4.8816,4.8818,4.8886,4.8936,4.9011,4.9071,4.9134,4.9226,4.9301,4.9353,4.9428,4.947,4.9474,4.9488,4.9486,4.9494,4.9404,4.9383,4.9484,4.9484,4.9483,4.9483,4.9483,4.9483,4.8618,4.8713,4.874,4.8859,4.8903,4.8988,4.9027,4.9079,4.9126,4.9229,4.9292,4.9326,4.9382,4.9461,4.9529,4.9542,4.9569,4.9583,4.9596,4.9511,4.9501,4.9491,4.9471,4.9588,4.9589,4.9681,4.9681,4.9682]}]]